Location: *
(41.7492°S, 135.4150°W)
Time: 23:02:39
(UTC+00:00)

Cosmos 1140 Rocket - Pass Details

Date: 20 September 2021
Orbit: 745 x 767 km, 74.1° (Epoch: 25 October)

Event Time Altitude Azimuth Distance (km) Brightness Sun altitude
Exits shadow 13:11:28 28° 331° (NNW) 1,429 4.5 -19.6°
Maximum altitude 13:14:21 76° 249° (WSW) 801 3.4 -19.1°
Drops below altitude 10° 13:19:40 10° 163° (SSE) 2,338 6.4 -18.2°
Sets 13:22:05 0° 161° (SSE) 3,273 7.3 -17.7°
